�������l�o���
Date,Time,MP-1(��Sv/h),MP-2(��Sv/h),MP-3(��Sv/h),MP-4(��Sv/h),MP-5(��Sv/h),MP-6(��Sv/h),MP-7(��Sv/h),MP-8(��Sv/h),����,����(m/s),���J
2018/03/01,00:00,0.891,1.496,0.933,1.752,1.214,0.489,0.869,0.837,��,4.2,��
2018/03/01,00:10,0.893,1.500,0.933,1.752,1.213,0.491,0.869,0.838,��,4.6,��
2018/03/01,00:20,0.890,1.498,0.935,1.757,1.213,0.490,0.871,0.838,��,4.4,��
2018/03/01,00:30,0.893,1.500,0.934,1.754,1.210,0.487,0.869,0.837,��,4.3,��
2018/03/01,00:40,0.892,1.498,0.933,1.751,1.213,0.490,0.872,0.838,��,3.4,��
2018/03/01,00:50,0.890,1.498,0.934,1.750,1.211,0.488,0.870,0.837,��쓌,2.6,��
2018/03/01,01:00,0.892,1.496,0.934,1.753,1.213,0.490,0.873,0.837,��쓌,1.9,��
2018/03/01,01:10,0.893,1.497,0.933,1.754,1.213,0.488,0.872,0.838,���쓌,2.3,��
2018/03/01,01:20,0.893,1.496,0.932,1.753,1.211,0.489,0.869,0.837,���쓌,3.1,��
2018/03/01,01:30,0.891,1.498,0.934,1.756,1.212,0.489,0.871,0.838,���쓌,2.9,��
2018/03/01,01:40,0.894,1.498,0.933,1.753,1.213,0.491,0.868,0.838,���쓌,3.2,��
2018/03/01,01:50,0.894,1.500,0.933,1.754,1.216,0.488,0.873,0.838,���쓌,6.9,��
2018/03/01,02:00,0.893,1.496,0.934,1.754,1.214,0.489,0.871,0.839,���쓌,9.7,��
2018/03/01,02:10,0.892,1.499,0.937,1.755,1.211,0.489,0.872,0.839,���쓌,10.2,��
2018/03/01,02:20,0.893,1.499,0.935,1.753,1.214,0.491,0.873,0.838,���쓌,9.8,�L
2018/03/01,02:30,0.894,1.498,0.934,1.754,1.214,0.492,0.872,0.839,���쓌,11.6,�L
2018/03/01,02:40,0.895,1.500,0.936,1.756,1.214,0.491,0.871,0.838,���쓌,10.6,�L
2018/03/01,02:50,0.896,1.496,0.935,1.753,1.213,0.493,0.870,0.840,���쓌,11.6,�L
2018/03/01,03:00,0.894,1.497,0.938,1.756,1.215,0.493,0.869,0.839,���쓌,12.2,�L
2018/03/01,03:10,0.896,1.499,0.938,1.754,1.212,0.492,0.870,0.838,���쓌,14.1,�L
2018/03/01,03:20,0.894,1.495,0.937,1.752,1.213,0.493,0.872,0.838,���쓌,11.6,�L
2018/03/01,03:30,0.894,1.494,0.936,1.750,1.207,0.492,0.870,0.839,���쓌,10.5,�L
2018/03/01,03:40,0.892,1.492,0.935,1.749,1.203,0.492,0.871,0.837,���쓌,12.0,�L
2018/03/01,03:50,0.891,1.487,0.931,1.749,1.200,0.493,0.870,0.836,�쓌,12.5,�L
2018/03/01,04:00,0.891,1.481,0.928,1.742,1.194,0.493,0.868,0.837,���쓌,13.0,�L
2018/03/01,04:10,0.884,1.472,0.927,1.740,1.192,0.495,0.869,0.838,���쓌,13.0,�L
2018/03/01,04:20,0.884,1.465,0.924,1.735,1.187,0.494,0.868,0.835,�쓌,13.3,�L
2018/03/01,04:30,0.883,1.461,0.923,1.731,1.181,0.493,0.866,0.834,���쓌,11.9,�L
2018/03/01,04:40,0.878,1.456,0.922,1.728,1.180,0.492,0.866,0.834,���쓌,11.9,�L
2018/03/01,04:50,0.879,1.454,0.922,1.724,1.179,0.493,0.866,0.834,���쓌,13.3,�L
2018/03/01,05:00,0.879,1.451,0.921,1.722,1.176,0.493,0.866,0.833,���쓌,12.4,�L
2018/03/01,05:10,0.877,1.452,0.917,1.717,1.174,0.491,0.866,0.833,���쓌,12.0,�L
2018/03/01,05:20,0.872,1.447,0.916,1.712,1.171,0.491,0.864,0.832,�쓌,13.5,�L
2018/03/01,05:30,0.873,1.446,0.916,1.707,1.168,0.489,0.863,0.830,���쓌,14.4,�L
2018/03/01,05:40,0.867,1.437,0.912,1.700,1.160,0.490,0.863,0.830,���쓌,16.0,�L
2018/03/01,05:50,0.864,1.428,0.908,1.691,1.152,0.489,0.861,0.828,���쓌,15.5,�L
2018/03/01,06:00,0.860,1.421,0.904,1.681,1.149,0.487,0.860,0.825,-,CALM,�L
2018/03/01,06:10,0.859,1.412,0.902,1.678,1.142,0.488,0.859,0.824,�쓌,17.2,�L
2018/03/01,06:20,0.858,1.414,0.900,1.672,1.139,0.487,0.857,0.825,���쓌,14.9,�L
2018/03/01,06:30,0.853,1.403,0.896,1.668,1.137,0.484,0.859,0.823,���쓌,19.4,�L
2018/03/01,06:40,0.853,1.399,0.894,1.662,1.133,0.483,0.859,0.822,-,CALM,�L
2018/03/01,06:50,0.850,1.395,0.890,1.660,1.128,0.483,0.856,0.821,-,CALM,�L
2018/03/01,07:00,0.848,1.393,0.889,1.654,1.125,0.481,0.855,0.819,�쓌,18.3,�L
2018/03/01,07:10,0.847,1.389,0.887,1.650,1.123,0.480,0.853,0.820,���쓌,18.5,�L
2018/03/01,07:20,0.843,1.387,0.885,1.644,1.116,0.478,0.853,0.819,���쓌,17.7,�L
2018/03/01,07:30,0.843,1.386,0.884,1.646,1.114,0.479,0.855,0.817,���쓌,16.9,�L
2018/03/01,07:40,0.844,1.388,0.883,1.645,1.114,0.480,0.852,0.819,�쓌,15.2,�L
2018/03/01,07:50,0.843,1.386,0.885,1.645,1.116,0.478,0.853,0.818,�쓌,14.6,�L
2018/03/01,08:00,0.845,1.387,0.881,1.645,1.111,0.478,0.852,0.817,��쓌,11.3,�L
2018/03/01,08:10,0.837,1.376,0.879,1.635,1.106,0.477,0.850,0.815,�쓌,12.4,�L
2018/03/01,08:20,0.834,1.364,0.869,1.621,1.091,0.474,0.844,0.811,��쓌,9.5,�L
2018/03/01,08:30,0.825,1.354,0.866,1.614,1.084,0.471,0.840,0.809,��쓌,9.8,�L
2018/03/01,08:40,0.828,1.360,0.866,1.619,1.084,0.472,0.841,0.810,��쓌,8.8,�L
2018/03/01,08:50,0.829,1.358,0.865,1.617,1.083,0.474,0.839,0.810,��쓌,9.2,�L
2018/03/01,09:00,0.826,1.356,0.864,1.613,1.077,0.474,0.839,0.808,�쓌,6.7,�L
2018/03/01,09:10,0.828,1.358,0.864,1.611,1.075,0.475,0.838,0.807,�쓌,6.8,�L
2018/03/01,09:20,0.831,1.359,0.867,1.615,1.076,0.477,0.838,0.811,�쓌,10.6,�L
2018/03/01,09:30,0.835,1.368,0.870,1.622,1.084,0.478,0.843,0.812,�쓌,13.3,�L
2018/03/01,09:40,0.840,1.374,0.874,1.628,1.091,0.480,0.844,0.813,��쓌,10.5,�L
2018/03/01,09:50,0.842,1.379,0.877,1.633,1.093,0.481,0.845,0.815,��,11.3,�L
2018/03/01,10:00,0.843,1.382,0.877,1.637,1.095,0.480,0.843,0.814,��,7.1,�L
2018/03/01,10:10,0.844,1.380,0.881,1.638,1.096,0.481,0.845,0.817,��,8.0,�L
2018/03/01,10:20,0.845,1.385,0.880,1.639,1.098,0.483,0.847,0.816,��,7.7,�L
2018/03/01,10:30,0.846,1.387,0.880,1.640,1.101,0.482,0.849,0.816,��,5.7,��
2018/03/01,10:40,0.847,1.390,0.880,1.641,1.102,0.482,0.850,0.817,��,6.7,��
2018/03/01,10:50,0.847,1.387,0.880,1.639,1.105,0.482,0.851,0.817,��,6.3,��
2018/03/01,11:00,0.846,1.395,0.883,1.646,1.107,0.482,0.850,0.817,��,6.5,��
2018/03/01,11:10,0.848,1.396,0.882,1.644,1.109,0.483,0.851,0.818,��,6.1,��
2018/03/01,11:20,0.850,1.397,0.884,1.644,1.108,0.482,0.851,0.818,��쐼,4.4,��
2018/03/01,11:30,0.846,1.398,0.883,1.647,1.106,0.482,0.851,0.817,��,4.9,��
2018/03/01,11:40,0.849,1.401,0.885,1.650,1.110,0.481,0.851,0.818,�쐼,4.3,��
2018/03/01,11:50,0.849,1.398,0.883,1.647,1.109,0.481,0.850,0.816,���쐼,5.7,��
2018/03/01,12:00,0.848,1.399,0.885,1.649,1.110,0.481,0.851,0.817,���쐼,6.5,�L
2018/03/01,12:10,0.848,1.401,0.884,1.650,1.112,0.482,0.851,0.817,���쐼,8.3,��
2018/03/01,12:20,0.848,1.401,0.884,1.652,1.114,0.480,0.852,0.817,��,3.9,��
2018/03/01,12:30,0.847,1.401,0.887,1.650,1.117,0.482,0.852,0.818,���k��,2.2,��
2018/03/01,12:40,0.851,1.405,0.888,1.653,1.117,0.483,0.855,0.821,���k��,3.9,��
2018/03/01,12:50,0.849,1.402,0.887,1.657,1.114,0.482,0.854,0.820,��,5.8,��
2018/03/01,13:00,0.849,1.401,0.888,1.657,1.120,0.483,0.854,0.818,���k��,7.5,��
2018/03/01,13:10,0.850,1.397,0.886,1.658,1.121,0.484,0.856,0.820,��,9.0,��
2018/03/01,13:20,0.851,1.400,0.887,1.656,1.121,0.482,0.855,0.818,���k��,8.1,��
2018/03/01,13:30,0.851,1.402,0.888,1.659,1.123,0.484,0.855,0.820,���k��,7.6,��
2018/03/01,13:40,0.853,1.406,0.891,1.661,1.125,0.482,0.857,0.818,��,7.2,��
2018/03/01,13:50,0.851,1.403,0.889,1.664,1.125,0.482,0.856,0.819,��,8.9,��
2018/03/01,14:00,0.852,1.404,0.891,1.664,1.123,0.483,0.857,0.822,��,8.7,��
2018/03/01,14:10,0.855,1.404,0.891,1.664,1.125,0.483,0.857,0.820,��,10.5,��
2018/03/01,14:20,0.851,1.402,0.891,1.666,1.126,0.484,0.856,0.819,��,13.3,��
2018/03/01,14:30,0.855,1.404,0.889,1.667,1.127,0.481,0.858,0.823,��,12.1,��
2018/03/01,14:40,0.852,1.404,0.891,1.666,1.127,0.481,0.855,0.822,��,12.1,��
2018/03/01,14:50,0.856,1.408,0.892,1.667,1.128,0.482,0.856,0.821,��,15.0,��
2018/03/01,15:00,0.854,1.414,0.891,1.665,1.129,0.483,0.856,0.822,��,13.5,��
2018/03/01,15:10,0.853,1.413,0.892,1.667,1.130,0.481,0.858,0.821,��,16.9,��
2018/03/01,15:20,0.854,1.417,0.892,1.670,1.128,0.483,0.856,0.822,��,15.3,��
2018/03/01,15:30,0.855,1.412,0.892,1.669,1.130,0.481,0.858,0.821,��,15.5,��
2018/03/01,15:40,0.855,1.414,0.892,1.669,1.130,0.483,0.857,0.822,��,22.1,��
2018/03/01,15:50,0.853,1.417,0.891,1.670,1.130,0.482,0.857,0.820,-,CALM,��
2018/03/01,16:00,0.853,1.415,0.888,1.671,1.129,0.482,0.856,0.823,���쐼,15.0,��
2018/03/01,16:10,0.853,1.418,0.890,1.671,1.131,0.484,0.856,0.823,���쐼,16.6,��
2018/03/01,16:20,0.854,1.414,0.892,1.672,1.134,0.485,0.859,0.821,��,19.1,��
2018/03/01,16:30,0.856,1.416,0.893,1.673,1.129,0.483,0.855,0.822,���쐼,14.7,��
2018/03/01,16:40,0.853,1.416,0.889,1.674,1.130,0.483,0.856,0.823,���쐼,18.5,��
2018/03/01,16:50,0.855,1.419,0.892,1.675,1.133,0.484,0.855,0.824,��,14.9,��
2018/03/01,17:00,0.854,1.419,0.892,1.673,1.131,0.484,0.856,0.824,���쐼,13.3,��
2018/03/01,17:10,0.855,1.422,0.894,1.677,1.134,0.484,0.855,0.822,��,13.5,��
2018/03/01,17:20,0.854,1.421,0.894,1.674,1.130,0.483,0.857,0.825,���쐼,8.2,��
2018/03/01,17:30,0.854,1.419,0.893,1.676,1.133,0.484,0.857,0.825,���쐼,12.2,��
2018/03/01,17:40,0.856,1.422,0.894,1.676,1.136,0.484,0.856,0.824,���쐼,10.6,��
2018/03/01,17:50,0.855,1.421,0.894,1.677,1.134,0.484,0.857,0.825,��,8.6,��
2018/03/01,18:00,0.856,1.421,0.895,1.674,1.136,0.484,0.857,0.823,��,6.5,��
2018/03/01,18:10,0.857,1.422,0.893,1.676,1.137,0.484,0.856,0.823,��,5.4,��
2018/03/01,18:20,0.855,1.420,0.894,1.679,1.136,0.484,0.857,0.826,��,5.7,��
2018/03/01,18:30,0.856,1.421,0.894,1.677,1.136,0.484,0.858,0.824,��,6.8,��
2018/03/01,18:40,0.856,1.421,0.896,1.677,1.140,0.485,0.859,0.824,��,9.7,��
2018/03/01,18:50,0.853,1.424,0.893,1.675,1.136,0.483,0.857,0.824,��,13.5,�L
2018/03/01,19:00,0.855,1.421,0.893,1.675,1.137,0.484,0.858,0.823,��,11.0,�L
2018/03/01,19:10,0.854,1.420,0.893,1.676,1.135,0.483,0.855,0.823,���쐼,7.3,��
2018/03/01,19:20,0.853,1.420,0.892,1.676,1.137,0.484,0.855,0.822,���쐼,8.6,��
2018/03/01,19:30,0.852,1.422,0.895,1.679,1.136,0.483,0.858,0.824,��,9.2,��
2018/03/01,19:40,0.855,1.421,0.895,1.678,1.138,0.483,0.857,0.823,��,5.5,��
2018/03/01,19:50,0.854,1.422,0.894,1.678,1.137,0.483,0.856,0.821,���k��,10.9,�L
2018/03/01,20:00,0.855,1.423,0.895,1.679,1.138,0.483,0.857,0.823,���k��,8.2,�L
2018/03/01,20:10,0.854,1.422,0.894,1.679,1.137,0.483,0.858,0.823,���쐼,9.0,��
2018/03/01,20:20,0.852,1.423,0.894,1.677,1.137,0.483,0.859,0.824,��,12.6,��
2018/03/01,20:30,0.856,1.423,0.893,1.679,1.136,0.482,0.858,0.822,���쐼,10.0,��
2018/03/01,20:40,0.853,1.423,0.893,1.680,1.140,0.481,0.855,0.824,��,10.0,��
2018/03/01,20:50,0.857,1.420,0.894,1.677,1.137,0.483,0.856,0.823,��,12.0,��
2018/03/01,21:00,0.854,1.422,0.892,1.680,1.138,0.482,0.857,0.824,��,10.9,�L
2018/03/01,21:10,0.855,1.423,0.893,1.679,1.138,0.482,0.857,0.824,��,8.3,��
2018/03/01,21:20,0.854,1.424,0.892,1.680,1.139,0.483,0.855,0.823,��,8.5,��
2018/03/01,21:30,0.855,1.422,0.892,1.680,1.139,0.483,0.855,0.825,���쐼,9.5,��
2018/03/01,21:40,0.854,1.424,0.894,1.679,1.137,0.483,0.857,0.823,��,11.7,�L
2018/03/01,21:50,0.853,1.424,0.894,1.678,1.139,0.483,0.856,0.824,��,12.4,��
2018/03/01,22:00,0.854,1.423,0.892,1.680,1.137,0.482,0.859,0.825,��,11.3,��
2018/03/01,22:10,0.855,1.424,0.894,1.681,1.141,0.483,0.858,0.825,��,10.9,��
2018/03/01,22:20,0.853,1.425,0.893,1.679,1.140,0.483,0.859,0.824,��,11.3,��
2018/03/01,22:30,0.854,1.423,0.892,1.681,1.138,0.484,0.859,0.823,��,11.7,��
2018/03/01,22:40,0.855,1.423,0.895,1.680,1.139,0.483,0.860,0.823,��,11.6,��
2018/03/01,22:50,0.853,1.425,0.895,1.679,1.139,0.484,0.859,0.824,���쐼,12.4,��
2018/03/01,23:00,0.854,1.426,0.895,1.684,1.143,0.483,0.860,0.825,���쐼,13.5,��
2018/03/01,23:10,0.854,1.424,0.895,1.681,1.140,0.483,0.858,0.823,���쐼,12.5,��
2018/03/01,23:20,0.856,1.424,0.893,1.684,1.141,0.482,0.859,0.824,��,13.3,�L
2018/03/01,23:30,0.854,1.425,0.895,1.684,1.139,0.484,0.857,0.824,��,11.3,��
2018/03/01,23:40,0.854,1.426,0.893,1.683,1.138,0.483,0.861,0.824,��,10.9,��
2018/03/01,23:50,0.854,1.427,0.894,1.682,1.140,0.483,0.859,0.824,��,13.3,�L
